LiveATC.Net - Listen to live air traffic control over the Internet!


ICAO: ENLI  IATA: FAN   Airport: Farsund Airport, Lista
City: Farsund
Country: Norway   Continent: Europe
ENZV METAR Weather: ENZV 240450Z 15006KT 9999 -RA FEW006 BKN025 OVC036 09/08 Q1004 TEMPO BKN008
ENLI Flight Activity (FlightAware)

ENLI CTAF
Feed Status: UP   Listeners: 0
Listen in your browser - HTML5 player (in browser, HTML5)
Click here to listen with your own player (launches your MP3 player)
Archive Access: ENLI CTAF
FacilityFrequency
Lista Traffic/Lista Radio126.450

NOTICE

Unauthorized use prohibited. See LiveATC.net Terms of Service


Airport/ARTCC Code
Frequency Search
(e.g., 124.400, 128.75)
Site-wide search
 


Browse Feeds
Top 50 Feeds
HF Oceanic Feeds
Coverage Map
Bad Weather Areas

LiveATC FAQ
Offer LiveATC feed
Contact LiveATC.net
Press Inquiries

LiveATC on iPhone
LiveATC on Android

Windows Phone
Windows 8/10

LiveATC Mobile
(Mobile browser)

ATC Audio Archives
Interesting Recordings

LiveATC Forums


Home Page
About LiveATC.net
Make a Donation
Terms of Use
Privacy Policy

Canadian Air Freqs

AIRMETs/SIGMETs

FAA Airport Status
NAS Status
Arrival Demand


Server Software By:
Icecast.org
Liquidsoap